TimeEDT,TemperatureF,Dew PointF,Humidity,Sea Level PressureIn,VisibilityMPH,Wind Direction,Wind SpeedMPH,Gust SpeedMPH,PrecipitationIn,Events,Conditions,WindDirDegrees,DateUTC
12:15 AM,68.0,51.8,56,30.16,10.0,Calm,Calm,-,N/A,Rain,Light Rain,0,2013-05-18 04:15:00
12:35 AM,66.2,53.6,64,30.17,7.0,NNE,6.9,-,0.02,Rain,Heavy Rain,20,2013-05-18 04:35:00
12:55 AM,62.6,57.2,82,30.18,10.0,NW,3.5,-,N/A,,Light Drizzle,310,2013-05-18 04:55:00
1:15 AM,-9999,-9999,N/A,30.18,10.0,NNE,4.6,-,N/A,,Overcast,20,2013-05-18 05:15:00
1:35 AM,-9999,-9999,N/A,30.18,10.0,North,5.8,-,N/A,Thunderstorm,Overcast,10,2013-05-18 05:35:00
1:55 AM,62.6,57.2,82,30.18,10.0,NNW,3.5,-,N/A,Thunderstorm,Thunderstorm,340,2013-05-18 05:55:00
2:15 AM,60.8,57.2,88,30.18,10.0,North,5.8,-,N/A,Thunderstorm,Thunderstorm,350,2013-05-18 06:15:00
2:35 AM,60.8,57.2,88,30.18,10.0,North,6.9,-,N/A,,Scattered Clouds,10,2013-05-18 06:35:00
2:55 AM,60.8,59.0,94,30.17,10.0,Calm,Calm,-,N/A,,Mostly Cloudy,0,2013-05-18 06:55:00
3:15 AM,-9999,-9999,N/A,30.17,10.0,Calm,Calm,-,N/A,,Mostly Cloudy,0,2013-05-18 07:15:00
3:35 AM,60.8,57.2,88,30.17,10.0,Calm,Calm,-,N/A,,Mostly Cloudy,0,2013-05-18 07:35:00
3:55 AM,60.8,57.2,88,30.17,10.0,Calm,Calm,-,N/A,,Mostly Cloudy,0,2013-05-18 07:55:00
4:15 AM,-9999,-9999,N/A,30.18,10.0,ENE,3.5,-,N/A,,Scattered Clouds,70,2013-05-18 08:15:00
4:35 AM,60.8,57.2,88,30.18,10.0,Calm,Calm,-,N/A,,Scattered Clouds,0,2013-05-18 08:35:00
4:55 AM,60.8,59.0,94,30.18,10.0,Calm,Calm,-,N/A,,Scattered Clouds,0,2013-05-18 08:55:00
5:15 AM,60.8,59.0,94,30.18,10.0,ENE,3.5,-,N/A,,Mostly Cloudy,60,2013-05-18 09:15:00
5:35 AM,60.8,60.8,100,30.18,10.0,Calm,Calm,-,N/A,,Overcast,0,2013-05-18 09:35:00
5:55 AM,60.8,60.8,100,30.19,10.0,Calm,Calm,-,N/A,,Overcast,0,2013-05-18 09:55:00
6:15 AM,60.8,60.8,100,30.19,10.0,Calm,Calm,-,N/A,,Overcast,0,2013-05-18 10:15:00
6:35 AM,60.8,60.8,100,30.20,10.0,Calm,Calm,-,N/A,,Overcast,0,2013-05-18 10:35:00
6:55 AM,60.8,60.8,100,300.21,10.0,Calm,Calm,-,N/A,,Overcast,0,2013-05-18 10:55:00
7:15 AM,60.8,60.8,100,30.21,10.0,East,4.6,-,N/A,,Overcast,80,2013-05-18 11:15:00
7:35 AM,62.6,62.6,100,3.02,10.0,ESE,3.5,-,N/A,,Overcast,110,2013-05-18 11:35:00
7:55 AM,62.6,62.6,100,-9999,10.0,ESE,3.5,-,N/A,,Overcast,110,2013-05-18 11:55:00
8:15 AM,64.4,64.4,100,30.22,10.0,Calm,Calm,-,N/A,,Overcast,0,2013-05-18 12:15:00
8:35 AM,64.4,64.4,100,30.22,10.0,ESE,4.6,-,N/A,,Mostly Cloudy,110,2013-05-18 12:35:00
8:55 AM,66.2,64.4,94,30.22,10.0,East,3.5,-,N/A,,Scattered Clouds,100,2013-05-18 12:55:00
9:15 AM,66.2,64.4,94,30.22,10.0,Calm,Calm,-,N/A,,Mostly Cloudy,0,2013-05-18 13:15:00
9:35 AM,66.2,64.4,94,30.22,10.0,Calm,Calm,-,N/A,,Mostly Cloudy,0,2013-05-18 13:35:00
9:55 AM,-9999,-9999,N/A,30.22,10.0,ESE,4.6,-,N/A,,Overcast,120,2013-05-18 13:55:00
10:15 AM,69.8,64.4,83,30.22,10.0,ESE,4.6,-,N/A,,Overcast,120,2013-05-18 14:15:00
10:35 AM,71.6,64.4,78,30.22,10.0,SSE,5.8,-,N/A,,Mostly Cloudy,150,2013-05-18 14:35:00
10:55 AM,71.6,66.2,83,30.22,10.0,East,4.6,-,N/A,,Mostly Cloudy,90,2013-05-18 14:55:00
11:15 AM,73.4,66.2,78,30.22,10.0,Calm,Calm,-,N/A,,Scattered Clouds,0,2013-05-18 15:15:00
11:35 AM,71.6,66.2,83,30.22,10.0,Calm,Calm,-,N/A,,Mostly Cloudy,0,2013-05-18 15:35:00
11:55 AM,71.6,66.2,83,30.22,10.0,Calm,Calm,-,N/A,,Overcast,0,2013-05-18 15:55:00
12:15 PM,71.6,66.2,83,30.22,10.0,Calm,Calm,-,N/A,,Overcast,0,2013-05-18 16:15:00
12:35 PM,71.6,66.2,83,30.22,10.0,NNE,3.5,-,N/A,,Mostly Cloudy,30,2013-05-18 16:35:00
12:55 PM,71.6,66.2,83,30.22,10.0,NNE,3.5,-,N/A,,Scattered Clouds,20,2013-05-18 16:55:00
1:15 PM,71.6,66.2,83,30.22,10.0,Calm,Calm,-,N/A,,Overcast,0,2013-05-18 17:15:00
1:35 PM,71.6,66.2,83,30.21,10.0,ENE,3.5,-,N/A,,Overcast,70,2013-05-18 17:35:00
1:55 PM,71.6,66.2,83,30.21,10.0,Calm,Calm,-,N/A,,Overcast,0,2013-05-18 17:55:00
2:15 PM,71.6,66.2,83,30.20,10.0,Calm,Calm,-,N/A,Thunderstorm,Overcast,0,2013-05-18 18:15:00
2:35 PM,69.8,66.2,88,30.20,7.0,NNE,3.5,-,N/A,Rain,Rain,30,2013-05-18 18:35:00
3:15 PM,71.6,68.0,88,30.19,10.0,Calm,Calm,-,N/A,,Unknown,0,2013-05-18 19:15:00
3:35 PM,69.8,68.0,94,30.20,10.0,Calm,Calm,-,N/A,Thunderstorm,Mostly Cloudy,0,2013-05-18 19:35:00
3:55 PM,69.8,66.2,88,30.20,10.0,WSW,3.5,-,N/A,,Drizzle,240,2013-05-18 19:55:00
4:15 PM,66.2,64.4,94,30.19,7.0,Calm,Calm,-,0.05,Rain,Rain,0,2013-05-18 20:15:00
4:35 PM,66.2,66.2,100,30.19,10.0,Calm,Calm,-,0.08,Rain,Rain,0,2013-05-18 20:35:00
4:55 PM,66.2,66.2,100,30.19,7.0,Calm,Calm,-,0.02,Rain,Rain,0,2013-05-18 20:55:00
5:15 PM,66.2,66.2,100,30.18,5.0,Calm,Calm,-,0.05,Rain,Rain,0,2013-05-18 21:15:00
5:35 PM,66.2,66.2,100,30.18,5.0,Calm,Calm,-,0.06,Rain,Light Rain,0,2013-05-18 21:35:00
6:15 PM,68.0,68.0,100,30.17,7.0,Calm,Calm,-,N/A,,Clear,0,2013-05-18 22:15:00
6:35 PM,68.0,68.0,100,30.18,7.0,ENE,3.5,-,N/A,,Scattered Clouds,70,2013-05-18 22:35:00
6:55 PM,68.0,68.0,100,30.19,5.0,Calm,Calm,-,N/A,,Mostly Cloudy,0,2013-05-18 22:55:00
7:15 PM,66.2,66.2,100,30.19,7.0,Calm,Calm,-,N/A,,Mostly Cloudy,0,2013-05-18 23:15:00
7:35 PM,66.2,66.2,100,30.20,7.0,Calm,Calm,-,N/A,,Scattered Clouds,0,2013-05-18 23:35:00
7:55 PM,66.2,66.2,100,30.20,7.0,Calm,Calm,-,N/A,,Scattered Clouds,0,2013-05-18 23:55:00
8:15 PM,66.2,66.2,100,30.20,7.0,Calm,Calm,-,N/A,,Scattered Clouds,0,2013-05-19 00:15:00
8:35 PM,66.2,66.2,100,30.20,5.0,Calm,Calm,-,N/A,,Scattered Clouds,0,2013-05-19 00:35:00
8:55 PM,64.4,64.4,100,30.20,4.0,Calm,Calm,-,N/A,,Scattered Clouds,0,2013-05-19 00:55:00
9:15 PM,64.4,64.4,100,30.20,3.0,Calm,Calm,-,N/A,,Scattered Clouds,0,2013-05-19 01:15:00
9:35 PM,64.4,64.4,100,30.21,3.0,Calm,Calm,-,N/A,,Scattered Clouds,0,2013-05-19 01:35:00
10:15 PM,64.4,64.4,100,30.21,5.0,Calm,Calm,-,N/A,,Overcast,0,2013-05-19 02:15:00
10:35 PM,64.4,64.4,100,30.22,7.0,Calm,Calm,-,N/A,,Overcast,0,2013-05-19 02:35:00
10:55 PM,64.4,64.4,100,30.23,5.0,Calm,Calm,-,0.01,Rain,Light Rain,0,2013-05-19 02:55:00
11:15 PM,64.4,64.4,100,30.22,5.0,Calm,Calm,-,0.08,Rain,Rain,0,2013-05-19 03:15:00
11:35 PM,64.4,64.4,100,30.22,4.0,Calm,Calm,-,0.09,Rain,Light Rain,0,2013-05-19 03:35:00
11:55 PM,64.4,64.4,100,30.22,4.0,Calm,Calm,-,0.01,Rain,Rain,0,2013-05-19 03:55:00